Flag for Switzerland Weather past 2 weeks in Zug, Zug, Switzerland

Now
76 °F

Mild.


Feels Like: 78 °F
Forecast: 53 / 80 °F
Wind: 9 mph from Southwest

Location: Zurich Town / Ville.

Current Time: Jun 2, 2015 at 7:40:35 PM

Latest Report: Jun 2, 2015 at 7:00 PM


Visibility: N/A

Pressure: 30.02 "Hg

Humidity: 39%

Dew point: 49 °F

Location of ZugLocation

Historic Weather in Zug — Graph

°F

Zug temperature yesterday

Maximum temperature yesterday: 74 °F (at 4:00 PM)
Minimum temperature yesterday: 56 °F (at 6:00 AM)
Average temperature yesterday: 64 °F

Past Weeks' High & Low Weather Summary

 TemperatureHumidityPressure
High77 °F (Jun 2, 5:00 PM)98% (Jun 2, 12:00 AM)30.34 "Hg (Jun 2, 12:00 AM)
Low41 °F (May 21, 1:00 AM)26% (May 28, 4:00 PM)29.71 "Hg (May 18, 7:00 PM)
Average56 °F72%30.05 "Hg
* Reported May 18 6:00 PM — Jun 2 6:00 PM, Zug, Weather by CustomWeather, © 2015

Note: Actual official high and low records may vary slightly from our data, if they occured in-between our weather recording intervals... More about our weather records

Advertising

Zug weather history for previous 24 hours

 ConditionsComfort  
Time TempWeatherWind HumidityBarometerVisibility
6:00 PM
Tue, Jun 2
77 °FMild.10 mph44%30.02 "HgN/A
5:00 PM77 °FMild.7 mph46%30.02 "HgN/A
4:00 PM76 °FMild.7 mph45%30.02 "HgN/A
3:00 PM75 °FMild.7 mph51%30.03 "HgN/A
2:00 PM76 °FOvercast.9 mph54%30.04 "HgN/A
1:00 PM73 °FMild.9 mph58%30.06 "HgN/A
12:00 PM70 °FMild.10 mph67%30.08 "HgN/A
11:00 AM66 °FMild.8 mph71%30.10 "HgN/A
10:00 AM63 °FMild.5 mph85%30.11 "HgN/A
9:00 AM60 °FCool.2 mph94%30.11 "HgN/A
8:00 AM58 °FCool.1 mph97%30.11 "HgN/A
7:00 AM57 °FCool.2 mph98%30.09 "HgN/A
6:00 AM57 °FCool.1 mph98%30.08 "HgN/A
4:00 AM58 °FCool.1 mph97%30.07 "HgN/A
3:00 AM58 °FCool.3 mph98%30.06 "HgN/A
2:00 AM57 °FCool.1 mph97%30.08 "HgN/A
1:00 AM58 °FCool.2 mph97%30.08 "HgN/A
12:00 AM59 °FCool.1 mph98%30.08 "HgN/A
10:00 PM
Mon, Jun 1
59 °FCool.1 mph96%30.05 "HgN/A
9:00 PM60 °FCool.3 mph96%30.04 "HgN/A
8:00 PM62 °FCool.3 mph93%30.04 "HgN/A
7:00 PM68 °FMild.7 mph62%30.00 "HgN/A
Weather by CustomWeather, © 2015

See weather overviewHow to use our weather pages